Pontiac, IL

10:18 PM CST on January 22, 2018 (GMT -0600)
Pontiac Municipal

Weather History for KPNT - November, 2011

Change the Weather History Date:

Sunday, November 13, 2011

  Actual Average Record
Temperature  
Mean Temperature 62 °F -  
Max Temperature 73 °F 48 °F 74 °F (1958)
Min Temperature 48 °F 31 °F 5 °F (1986)
Degree Days  
Heating Degree Days 3    
Growing Degree Days 12 (Base 50)    
Moisture  
Dew Point 46 °F    
Average Humidity 61    
Maximum Humidity 88    
Minimum Humidity 27    
Precipitation  
Precipitation 0.00 in - - ()
Sea Level Pressure  
Sea Level Pressure 29.49 in    
Wind  
Wind Speed 24 mph (SSW)    
Max Wind Speed 34 mph    
Max Gust Speed 48 mph    
Visibility 10 miles    
Events      
Averages and records for this station are not official NWS values.
T = Trace of Precipitation, MM = Missing Value Source: NWS Daily Summary

Daily Weather History Graph

Daily Weather History Graph

Search for Another Location

Airport or City:

Trip Planner

Search our weather history database for the weather conditions in past years. The results will help you decide how hot, cold, wet, or windy it might be!

Date:

Astronomy

Nov. 13, 2011 Rise Set
Actual Time 6:39 AM CST 4:37 PM CST
Civil Twilight 6:09 AM CST 5:07 PM CST
Nautical Twilight 5:36 AM CST 5:40 PM CST
Astronomical Twilight 5:04 AM CST 6:12 PM CST
Moon 6:45 PM CST (11/13) 9:12 AM CST (11/13)
Length of Visible Light 10h 57m
Length of Day
9h 58m
Waning Gibbous, 92% of the Moon is Illuminated
Nov 13
Waning Gibbous
Nov 18
Last Quarter
Nov 25
New
Dec 2
First Quarter
Dec 10
Full

Hourly Weather History & Observations

Time (CST) Temp. Windchill Dew Point Humidity Pressure Visibility Wind Dir Wind Speed Gust Speed Precip Events Conditions
12:15 AM 57.2 °F - 48.2 °F 72% - 10.0 mi SSW 26.5 mph 35.7 mph N/A   Scattered Clouds
12:35 AM 57.2 °F - 48.2 °F 72% 29.59 in 10.0 mi South 25.3 mph 33.4 mph N/A   Clear
12:55 AM 55.4 °F - 48.2 °F 77% 29.58 in 10.0 mi South 24.2 mph 29.9 mph N/A   Clear
1:15 AM 55.4 °F - 48.2 °F 77% 29.58 in 10.0 mi South 25.3 mph 32.2 mph N/A   Clear
1:35 AM 55.4 °F - 48.2 °F 77% 29.57 in 10.0 mi South 21.9 mph 34.5 mph N/A   Clear
2:15 AM 55.4 °F - 48.2 °F 77% 29.56 in 10.0 mi South 19.6 mph 26.5 mph N/A   Clear
2:35 AM 55.4 °F - 48.2 °F 77% 29.55 in 10.0 mi South 21.9 mph 28.8 mph N/A   Clear
2:55 AM 55.4 °F - 48.2 °F 77% 29.55 in 10.0 mi South 21.9 mph 31.1 mph N/A   Scattered Clouds
3:15 AM 55.4 °F - 50.0 °F 82% 29.54 in 10.0 mi South 24.2 mph 31.1 mph N/A   Scattered Clouds
3:35 AM 55.4 °F - 50.0 °F 82% 29.54 in 10.0 mi South 20.7 mph 28.8 mph N/A   Scattered Clouds
3:55 AM 55.4 °F - 50.0 °F 82% 29.54 in 10.0 mi South 21.9 mph 25.3 mph N/A   Scattered Clouds
4:15 AM 55.4 °F - 50.0 °F 82% 29.54 in 10.0 mi South 21.9 mph 27.6 mph N/A   Clear
4:35 AM 55.4 °F - 50.0 °F 82% 29.52 in 10.0 mi South 23.0 mph 27.6 mph N/A   Clear
4:55 AM 57.2 °F - 51.8 °F 82% 29.52 in 10.0 mi South 20.7 mph 26.5 mph N/A   Clear
5:15 AM 55.4 °F - 51.8 °F 88% 29.51 in 10.0 mi South 21.9 mph 27.6 mph N/A   Clear
5:35 AM 55.4 °F - 51.8 °F 88% 29.50 in 10.0 mi South 20.7 mph 28.8 mph N/A   Clear
5:55 AM 55.4 °F - 51.8 °F 88% 29.50 in 10.0 mi South 20.7 mph 28.8 mph N/A   Clear
6:15 AM 57.2 °F - 51.8 °F 82% 29.51 in 10.0 mi South 23.0 mph 27.6 mph N/A   Clear
6:35 AM 57.2 °F - 51.8 °F 82% 29.50 in 10.0 mi South 24.2 mph 27.6 mph N/A   Clear
6:55 AM 57.2 °F - 51.8 °F 82% 29.50 in 10.0 mi South 20.7 mph 29.9 mph N/A   Clear
7:15 AM 57.2 °F - 51.8 °F 82% 29.49 in 10.0 mi South 20.7 mph 27.6 mph N/A   Clear
7:35 AM 57.2 °F - 51.8 °F 82% 29.48 in 10.0 mi South 21.9 mph 27.6 mph N/A   Clear
7:55 AM 57.2 °F - 51.8 °F 82% 29.48 in 10.0 mi South 25.3 mph 32.2 mph N/A   Clear
8:15 AM 60.8 °F - 53.6 °F 77% 29.46 in 10.0 mi South 28.8 mph 32.2 mph N/A   Clear
8:35 AM 60.8 °F - 53.6 °F 77% 29.45 in 10.0 mi South 27.6 mph 38.0 mph N/A   Clear
8:55 AM 60.8 °F - 53.6 °F 77% 29.44 in 10.0 mi South 33.4 mph 44.9 mph N/A   Clear
9:15 AM 62.6 °F - 53.6 °F 72% 29.44 in 10.0 mi South 28.8 mph 44.9 mph N/A   Clear
9:35 AM 64.4 °F - 53.6 °F 68% 29.43 in 10.0 mi SSW 29.9 mph 44.9 mph N/A   Clear
9:55 AM 64.4 °F - 53.6 °F 68% 29.43 in 10.0 mi SSW 33.4 mph 48.3 mph N/A   Clear
10:15 AM 66.2 °F - 53.6 °F 64% 29.42 in 10.0 mi SSW 33.4 mph 44.9 mph N/A   Clear
10:35 AM 66.2 °F - 53.6 °F 64% 29.42 in 10.0 mi SSW 33.4 mph 43.7 mph N/A   Scattered Clouds
10:55 AM 68.0 °F - 53.6 °F 60% 29.41 in 10.0 mi SSW 32.2 mph 42.6 mph N/A   Scattered Clouds
11:15 AM 68.0 °F - 53.6 °F 60% 29.41 in 10.0 mi SSW 33.4 mph 42.6 mph N/A   Scattered Clouds
11:35 AM 69.8 °F - 53.6 °F 56% 29.40 in 10.0 mi SSW 32.2 mph 42.6 mph N/A   Scattered Clouds
11:55 AM 69.8 °F - 53.6 °F 56% 29.40 in 10.0 mi SW 24.2 mph 43.7 mph N/A   Clear
12:35 PM 71.6 °F - 51.8 °F 50% 29.39 in 10.0 mi SW 34.5 mph 40.3 mph N/A   Unknown
12:55 PM 73.4 °F - 50.0 °F 44% 29.39 in 10.0 mi SW 31.1 mph 40.3 mph N/A   Clear
1:15 PM 73.4 °F - 48.2 °F 41% 29.39 in 10.0 mi SW 31.1 mph 42.6 mph N/A   Clear
1:35 PM 73.4 °F - 46.4 °F 38% 29.38 in 10.0 mi SW 32.2 mph 39.1 mph N/A   Clear
1:55 PM 73.4 °F - 42.8 °F 33% 29.37 in 10.0 mi SW 28.8 mph 38.0 mph N/A   Clear
2:15 PM 73.4 °F - 42.8 °F 33% 29.38 in 10.0 mi SW 27.6 mph 41.4 mph N/A   Clear
2:35 PM 73.4 °F - 41.0 °F 31% 29.40 in 10.0 mi SW 25.3 mph 36.8 mph N/A   Clear
2:55 PM 73.4 °F - 37.4 °F 27% 29.41 in 10.0 mi SW 28.8 mph 39.1 mph N/A   Clear
3:15 PM 73.4 °F - 39.2 °F 29% 29.41 in 10.0 mi SW 25.3 mph 35.7 mph N/A   Clear
3:35 PM 71.6 °F - 37.4 °F 29% 29.43 in 10.0 mi SW 24.2 mph 31.1 mph N/A   Clear
3:55 PM 71.6 °F - 37.4 °F 29% 29.43 in 10.0 mi SW 20.7 mph 29.9 mph N/A   Clear
4:15 PM 69.8 °F - 37.4 °F 31% 29.43 in 10.0 mi SW 19.6 mph 29.9 mph N/A   Clear
4:35 PM 69.8 °F - 37.4 °F 31% 29.44 in 10.0 mi SW 18.4 mph 27.6 mph N/A   Clear
4:55 PM 66.2 °F - 37.4 °F 35% 29.46 in 10.0 mi SW 16.1 mph 24.2 mph N/A   Clear
5:15 PM 66.2 °F - 37.4 °F 35% 29.48 in 10.0 mi WSW 17.3 mph - N/A   Clear
5:35 PM 64.4 °F - 39.2 °F 40% 29.50 in 10.0 mi WSW 12.7 mph - N/A   Clear
5:55 PM 60.8 °F - 37.4 °F 42% 29.53 in 10.0 mi West 17.3 mph - N/A   Clear
6:15 PM 59.0 °F - 35.6 °F 42% 29.55 in 10.0 mi West 12.7 mph - N/A   Clear
6:35 PM 55.4 °F - 37.4 °F 51% 29.55 in 10.0 mi West 10.4 mph - N/A   Clear
6:55 PM 53.6 °F - 37.4 °F 54% 29.57 in 10.0 mi WNW 9.2 mph - N/A   Clear
7:15 PM 53.6 °F - 35.6 °F 51% 29.58 in 10.0 mi West 8.1 mph - N/A   Clear
7:35 PM 51.8 °F - 35.6 °F 54% 29.58 in 10.0 mi West 8.1 mph - N/A   Clear
7:55 PM 51.8 °F - 35.6 °F 54% 29.59 in 10.0 mi West 5.8 mph - N/A   Clear
8:15 PM 51.8 °F - 35.6 °F 54% 29.61 in 10.0 mi WSW 3.5 mph - N/A   Clear
8:35 PM 48.2 °F - 35.6 °F 62% 29.61 in 10.0 mi SW 3.5 mph - N/A   Clear
8:55 PM 46.4 °F - 35.6 °F 66% 29.62 in 10.0 mi Calm Calm - N/A   Clear
9:15 PM 44.6 °F 43.1 °F 35.6 °F 71% 29.62 in 10.0 mi SSW 3.5 mph - N/A   Clear
9:35 PM 48.2 °F - 35.6 °F 62% 29.63 in 10.0 mi WSW 3.5 mph - N/A   Clear
9:55 PM 46.4 °F 45.2 °F 35.6 °F 66% 29.64 in 10.0 mi SSW 3.5 mph - N/A   Clear
10:15 PM 42.8 °F - 35.6 °F 76% 29.64 in 10.0 mi Calm Calm - N/A   Clear
10:35 PM 46.4 °F 45.2 °F 35.6 °F 66% 29.64 in 10.0 mi West 3.5 mph - N/A   Clear
10:55 PM 46.4 °F 45.2 °F 33.8 °F 62% 29.64 in 10.0 mi West 3.5 mph - N/A   Clear
11:15 PM 48.2 °F - 33.8 °F 58% 29.65 in 10.0 mi Calm Calm - N/A   Clear
11:35 PM 44.6 °F 43.1 °F 35.6 °F 71% 29.65 in 10.0 mi SSW 3.5 mph - N/A   Clear
11:55 PM 42.8 °F 39.3 °F 35.6 °F 76% 29.66 in 10.0 mi South 5.8 mph - N/A   Clear